Flag for U.S.A. Weather past 2 weeks in Allentown, Pennsylvania, U.S.A.

Now
70 °F

Clear.


Feels Like: 69 °F
Forecast: 70 / 90 °F
Wind: No wind

Location: Lehigh Valley International Airport

Current Time: Jul 23, 2014 at 2:46:25 AM

Latest Report: Jul 23, 2014 at 1:51 AM


Visibility: 10 mi

Pressure: 30.03 "Hg

Humidity: 84%

Dew point: 65 °F

Location of AllentownLocation

Historic Weather in Allentown — Graph

°F

Allentown temperature yesterday

Maximum temperature yesterday: 81 °F (at 11:51 AM)
Minimum temperature yesterday: 64 °F (at 5:51 AM)
Average temperature yesterday: 73 °F

Past Weeks' High & Low Weather Summary

 TemperatureHumidityPressure
High91 °F (Jul 8, 3:51 PM)97% (Jul 11, 4:51 AM)30.25 "Hg (Jul 11, 4:51 AM)
Low56 °F (Jul 18, 5:51 AM)36% (Jul 17, 4:51 PM)29.65 "Hg (Jul 8, 7:51 PM)
Average74 °F70%30.02 "Hg
* Reported Jul 8 12:51 AM — Jul 23 12:51 AM, Allentown, Weather by CustomWeather, © 2014

Note: Actual official high and low records may vary slightly from our data, if they occured in-between our weather recording intervals... More about our weather records

Advertising

Allentown weather history for previous 24 hours

 ConditionsComfort  
Time TempWeatherWind HumidityBarometerVisibility
12:51 AM
Jul 23
72 °FClear.6 mph81%30.04 "Hg10 mi
11:51 PM
Jul 22
76 °FClear.8 mph72%30.04 "Hg10 mi
10:51 PM77 °FClear.8 mph74%30.06 "Hg10 mi
9:51 PM78 °FClear.7 mph71%30.06 "Hg10 mi
8:51 PM81 °FSunny.8 mph65%30.06 "Hg10 mi
7:51 PM81 °FSunny.8 mph67%30.06 "Hg10 mi
12:58 PM81 °FBroken clouds.9 mph70%30.15 "Hg10 mi
11:51 AM81 °FBroken clouds.10 mph67%30.15 "Hg10 mi
10:51 AM79 °FScattered clouds.5 mph69%30.17 "Hg10 mi
9:51 AM77 °FSunny.5 mph71%30.17 "Hg10 mi
8:51 AM74 °FSunny.No wind74%30.19 "Hg10 mi
7:51 AM71 °FSunny.No wind81%30.19 "Hg8 mi
6:51 AM67 °FFog.No wind90%30.18 "Hg6 mi
5:51 AM64 °FFog.No wind90%30.17 "Hg5 mi
4:51 AM65 °FClear.3 mph91%30.17 "Hg7 mi
3:51 AM65 °FClear.No wind94%30.16 "Hg8 mi
2:51 AM67 °FClear.3 mph87%30.16 "Hg10 mi
Weather by CustomWeather, © 2014

See weather overviewHow to use our weather pages